Wetbulb
71.01 69.95 70.01 64.15 55.43 56.01 51.27 54.55 58.71 57.63 57.74 61.87 63.21 61.92 60.26 61.18 58.84 55.20 67.64 69.32 69.88 69.46 71.10 72.20 73.23 72.75 72.79 72.28 71.51 71.86 71.52 71.54 71.04 70.99 71.02 71.20 71.09 71.24 71.07 71.36 71.61 71.90 72.33 72.07 72.21 72.70 72.68 73.38 73.43
66.55 69.66 66.32 61.13 53.06 49.92 50.10 57.10 56.85 59.05 61.26 63.32 63.06 62.10 60.32 58.89 63.90 64.59 65.60 69.39 69.77 70.04 70.22 70.53 72.21 71.51 70.89 70.68 70.86 71.17 70.63 70.21 70.44 70.19 70.76 70.89 70.97 71.12 71.12 71.14 71.09 71.02 70.88 70.80 71.26 71.18 71.52 71.76 71.54
69.30 69.69 58.11 54.96 53.90 49.72 50.36 56.82 58.20 60.97 63.18 62.60 61.34 63.66 62.57 61.08 65.03 66.03 68.40 69.69 69.42 69.33 69.95 69.43 71.08 70.38 69.78 69.46 69.96 69.62 68.99 68.99 68.67 68.25 67.90 67.95 68.49 68.30 68.17 68.68 69.22 69.85 70.62 70.84 69.85 70.25 70.64 70.76 70.72
65.69 63.07 60.02 52.46 51.56 56.07 56.71 57.37 60.75 60.67 62.34 63.12 62.16 59.41 64.18 67.52 65.86 67.92 69.45 69.63 68.86 67.36 67.63 69.47 70.14 69.64 69.14 68.71 68.99 68.35 67.90 67.74 67.47 67.26 66.96 66.57 66.56 66.09 66.32 66.27 66.18 66.63 66.79 67.30 67.97 68.50 69.35 70.01 70.40
64.64 60.60 53.30 51.82 52.84 56.98 59.43 60.69 60.90 60.19 60.90 61.00 61.98 58.72 60.84 66.36 68.60 68.80 68.55 68.82 65.90 65.16 65.76 66.86 69.63 69.13 68.66 68.25 67.77 67.41 66.98 66.29 66.53 66.20 65.32 65.24 64.52 64.31 64.42 64.49 64.47 63.96 63.98 64.41 65.07 65.51 65.91 66.94 68.07
57.19 58.15 50.69 49.13 53.55 57.65 59.68 60.88 61.68 60.14 60.63 60.97 59.94 59.95 60.79 67.43 67.18 67.80 68.74 65.41 66.00 65.00 64.91 65.30 68.39 68.42 67.72 66.86 66.38 66.40 66.23 65.67 65.92 64.82 64.26 63.86 63.59 63.51 63.32 63.36 62.78 62.52 63.08 63.22 63.41 63.86 64.41 64.90 65.32
56.86 55.38 51.11 54.03 54.41 56.10 57.72 61.28 60.39 60.28 59.95 60.63 62.43 58.18 61.62 65.21 67.04 68.14 66.31 64.93 64.76 64.10 63.95 63.02 64.01 65.46 67.29 66.35 65.79 65.61 65.55 65.43 64.45 63.47 62.89 63.12 63.81 63.91 63.22 64.12 63.57 62.55 62.83 62.91 62.75 63.10 63.39 63.62 64.15
60.48 57.29 54.26 53.88 54.07 54.56 58.45 61.79 63.87 62.75 61.22 64.63 63.72 58.07 58.67 64.19 67.56 67.67 63.94 60.99 60.10 60.52 61.38 61.71 62.19 62.88 62.84 61.82 65.79 65.39 64.92 64.92 63.91 63.18 63.33 64.87 64.83 64.57 64.97 64.49 64.57 63.65 63.55 63.49 64.18 64.36 63.97 64.04 64.09
60.51 52.57 50.39 51.55 54.51 55.86 59.51 59.26 63.76 65.16 62.44 63.16 63.95 62.70 64.07 66.32 65.43 59.17 57.20 55.20 54.80 58.88 57.98 58.98 59.31 60.18 62.18 61.70 61.82 65.09 65.23 64.94 64.44 63.47 63.78 60.14 56.14 56.47 60.28 62.72 64.41 65.08 64.61 65.15 65.58 65.92 65.40 65.20 64.99
57.86 52.06 53.70 57.34 56.34 56.21 59.87 60.86 61.08 61.20 60.82 60.02 60.61 62.66 61.78 65.55 58.64 56.53 54.63 54.07 53.65 54.99 56.07 57.82 56.16 56.35 56.94 61.32 56.25 58.43 60.15 59.67 59.24 59.17 56.22 56.11 55.17 58.89 60.23 61.03 63.62 63.36 64.12 63.70 63.52 63.75 64.09 63.10 56.79
57.85 54.74 58.81 59.26 59.44 61.28 58.67 60.78 63.02 60.30 58.07 59.48 58.33 56.76 57.05 57.48 56.85 56.51 56.13 55.62 55.19 58.08 58.34 58.40 57.68 57.91 57.14 55.84 54.69 55.77 57.64 57.99 57.20 56.53 55.30 54.40 55.07 55.28 54.73 55.19 55.17 54.31 59.38 55.58 56.66 55.89 56.47 55.33 54.60
56.82 58.40 58.37 59.36 62.57 61.58 60.06 61.57 60.97 61.42 61.07 62.46 60.84 57.62 56.57 56.13 56.00 55.79 56.78 56.51 57.28 57.13 56.62 57.05 57.87 57.35 57.12 55.27 55.58 54.37 54.53 55.15 56.07 55.86 55.23 53.54 53.63 53.50 53.00 53.68 54.66 54.66 54.40 53.61 53.29 53.61 54.38 54.84 54.76
56.96 58.30 59.27 60.56 60.67 61.58 62.35 60.34 60.16 60.28 62.65 62.85 58.68 57.17 55.43 55.62 55.74 56.93 58.37 58.66 58.52 57.25 56.90 58.38 57.68 56.94 56.20 55.57 55.31 56.08 54.65 53.90 53.72 54.98 54.26 54.32 53.00 53.28 52.57 53.43 53.70 53.81 53.68 52.39 52.42 53.00 53.79 53.85 55.05
57.09 58.00 57.76 58.01 57.59 61.53 59.75 59.73 60.84 61.20 62.60 60.85 57.76 56.82 55.82 56.19 56.47 57.40 58.33 57.83 56.85 59.13 57.08 58.98 57.71 57.57 57.53 56.63 56.11 56.35 55.80 53.50 54.77 55.06 54.87 54.65 53.12 53.95 52.53 53.13 52.85 54.45 53.95 52.68 52.70 53.18 53.99 53.79 53.72
58.20 54.73 55.86 57.40 57.33 59.03 60.93 56.95 58.04 60.72 60.63 57.70 57.00 56.00 55.90 56.35 56.91 56.11 56.73 56.48 57.73 58.45 57.69 57.53 58.67 57.99 57.18 57.14 56.49 56.98 56.61 55.47 54.30 54.85 55.69 54.22 53.98 53.39 53.11 53.20 52.42 54.03 54.95 52.84 52.59 54.70 54.38 53.33 53.79
53.88 53.21 49.16 56.13 57.88 58.30 58.82 52.18 58.91 60.74 58.66 56.30 56.68 56.80 56.73 56.39 56.04 55.83 56.67 57.33 57.12 56.09 55.86 56.47 61.76 59.75 57.40 57.46 56.88 57.17 57.58 56.02 54.88 54.79 54.34 55.37 55.89 55.49 53.45 53.63 52.22 53.71 54.12 52.23 53.00 53.62 53.07 52.24 52.46
51.48 46.22 50.03 53.62 58.10 57.54 57.27 53.67 59.26 60.68 58.67 56.40 56.15 56.59 56.93 56.01 56.42 56.82 57.73 58.22 56.99 56.67 56.56 57.24 59.30 59.03 57.37 57.24 58.58 59.16 58.72 57.55 55.98 54.97 53.63 56.43 57.73 56.11 53.58 53.42 52.29 51.72 53.66 53.18 52.22 55.40 52.44 51.95 52.38
47.02 47.51 51.11 50.42 54.63 55.67 54.51 54.40 58.47 59.99 58.55 57.32 56.95 57.30 57.12 56.45 56.80 57.96 58.37 58.45 57.21 57.59 57.98 57.83 59.41 60.07 58.61 58.36 58.77 60.23 57.78 56.26 54.22 55.16 55.22 55.96 56.44 56.69 54.32 53.74 54.25 52.55 53.42 52.16 51.42 51.21 52.20 52.66 52.48
52.90 50.88 50.22 53.03 55.68 53.04 52.43 54.53 56.00 58.68 58.37 57.40 57.14 56.95 57.13 57.27 59.42 59.48 58.95 58.72 58.03 57.97 57.26 57.93 59.88 60.36 59.77 57.35 56.96 56.50 55.50 53.97 54.14 54.78 56.21 55.44 54.96 55.63 54.40 54.38 53.07 52.53 54.03 51.38 51.53 51.94 51.46 51.88 52.48
53.20 51.59 50.07 53.24 56.17 53.05 53.63 53.75 55.58 57.64 57.67 58.43 57.75 57.21 57.56 58.22 58.82 58.69 58.31 58.15 58.74 59.32 57.77 58.16 59.43 60.26 59.33 57.94 57.40 57.30 56.38 55.70 54.58 54.34 55.02 55.72 56.07 55.86 54.54 53.71 53.48 52.73 51.29 50.30 50.53 51.03 50.40 50.91 52.16
51.14 49.24 48.27 48.44 53.73 55.54 53.73 51.16 52.24 55.35 57.53 58.98 59.87 60.14 58.42 58.17 57.59 57.89 58.33 58.50 59.45 58.37 58.73 59.58 60.03 59.71 58.34 58.57 57.34 57.84 56.88 55.80 54.40 54.18 53.23 55.06 56.14 55.76 54.85 55.59 54.09 53.13 52.38 51.10 51.16 51.48 50.33 49.97 50.93
46.68 53.54 51.72 50.15 47.04 41.84 52.88 42.03 50.27 53.20 54.11 56.26 58.08 58.42 57.78 57.35 57.43 57.32 58.56 58.83 59.06 59.50 60.03 59.94 59.51 58.70 58.36 58.07 56.58 54.39 53.09 52.51 53.21 52.18 53.21 54.12 56.41 56.73 57.22 56.09 55.30 54.04 52.59 51.99 51.24 53.48 52.16 50.80 49.91
50.67 54.02 51.60 49.72 45.48 43.18 46.50 43.04 46.58 50.65 50.30 52.47 53.46 55.24 54.80 55.26 55.89 56.15 57.20 57.57 58.83 59.61 58.58 58.98 58.18 57.06 57.32 57.74 56.40 53.92 53.61 54.27 53.61 53.80 52.92 53.40 54.64 55.14 55.86 55.85 54.56 53.64 52.41 52.47 52.29 52.04 52.22 51.71 50.49
55.43 52.55 49.91 47.28 41.94 35.92 44.41 43.72 42.51 46.22 50.33 51.15 50.87 54.07 53.47 53.14 55.43 56.13 56.83 57.39 57.52 58.18 59.03 57.97 56.24 55.72 54.93 55.86 54.89 53.00 54.25 54.32 53.05 53.70 53.29 53.54 54.30 53.36 53.91 55.18 54.44 53.74 52.59 52.27 52.19 52.31 52.19 51.97 51.15
52.07 44.17 37.56 36.26 35.06 35.17 46.26 43.36 43.67 50.40 51.91 51.56 50.94 50.26 51.01 52.43 53.48 52.55 53.89 56.89 55.82 55.77 56.42 56.63 55.60 54.11 54.77 55.92 54.39 53.70 53.39 53.21 54.40 55.16 55.34 55.01 54.79 52.28 52.19 51.96 53.08 52.74 52.41 52.54 52.45 52.13 52.68 52.20 50.71
48.87 44.42 37.57 31.73 32.55 35.36 46.05 40.32 43.47 52.12 53.29 54.99 52.93 52.01 51.19 51.13 51.50 53.50 52.60 50.67 49.85 50.47 52.76 55.54 54.12 53.41 54.72 53.43 53.17 53.88 54.70 53.89 53.43 53.36 53.61 55.54 55.16 53.64 54.34 52.29 52.68 52.90 53.30 54.70 53.82 52.05 52.34 51.72 50.93
49.71 44.26 45.47 39.21 37.76 33.99 40.67 44.00 49.35 52.09 52.70 52.01 49.67 49.82 49.61 50.50 50.22 48.63 49.30 50.28 48.38 48.33 48.36 48.93 48.57 47.50 51.24 53.75 53.39 52.78 53.08 52.93 51.99 52.62 53.37 54.97 55.14 54.69 54.30 53.31 53.06 53.75 53.25 54.63 53.28 51.48 51.63 50.41 50.88
50.58 49.93 40.99 39.21 33.03 31.47 40.02 41.30 40.41 47.19 49.12 48.88 48.59 48.67 49.10 47.67 45.19 45.57 47.14 46.50 47.08 46.49 48.54 48.36 47.73 49.66 53.38 53.11 51.99 52.72 51.63 52.20 52.54 52.36 52.04 52.95 54.93 54.15 54.07 54.11 53.92 53.72 53.30 53.11 53.60 51.76 51.40 50.49 50.97
46.15 43.13 43.35 41.05 38.25 33.47 32.18 36.83 46.57 46.99 47.38 46.92 47.52 48.14 49.54 46.04 43.73 44.55 45.42 46.40 47.13 47.71 47.64 47.62 47.87 48.17 48.41 49.41 50.03 51.58 51.82 51.81 51.61 51.07 51.36 51.93 53.59 53.85 53.45 53.29 53.34 53.79 53.29 54.73 53.57 52.33 52.05 52.49 52.87
48.86 44.14 42.51 37.07 36.20 36.99 35.92 37.42 47.40 47.11 47.44 49.07 49.50 50.64 50.03 46.53 44.63 44.89 45.78 47.03 45.82 45.52 45.90 47.49 47.17 47.27 47.04 47.49 47.42 47.40 50.51 50.29 50.24 51.07 52.13 53.16 53.17 52.83 52.28 52.90 53.80 54.95 53.72 53.81 53.55 53.00 52.44 54.22 53.12
MSLP
1012.75 1012.53 1012.63 1013.24 1015.52 1016.79 1017.47 1016.86 1016.08 1015.12 1015.27 1015.49 1015.02 1015.40 1016.62 1017.55 1018.03 1019.41 1019.50 1019.65 1019.74 1019.95 1019.88 1019.83 1019.81 1019.93 1019.84 1020.01 1019.93 1019.80 1019.82 1019.78 1019.91 1020.16 1020.13 1020.07 1019.99 1019.86 1019.88 1019.94 1019.83 1019.60 1019.52 1019.24 1019.06 1019.03 1018.96 1018.96 1018.96
1012.69 1012.65 1013.34 1014.99 1016.64 1017.35 1017.52 1016.62 1015.45 1014.88 1015.35 1015.59 1015.75 1016.40 1017.04 1018.35 1018.64 1019.29 1019.75 1019.92 1019.89 1019.99 1020.09 1020.07 1020.04 1020.00 1020.04 1020.21 1020.11 1020.10 1020.14 1020.24 1020.23 1020.30 1020.45 1020.35 1020.31 1020.13 1020.13 1020.12 1019.96 1019.88 1019.77 1019.62 1019.41 1019.36 1019.26 1019.13 1019.04
1012.72 1013.01 1014.57 1015.82 1017.02 1016.97 1016.17 1015.59 1015.07 1015.05 1015.11 1015.07 1016.27 1017.22 1017.83 1018.92 1019.26 1019.55 1019.56 1019.82 1019.93 1020.14 1020.17 1020.08 1020.12 1020.12 1020.18 1020.31 1020.31 1020.28 1020.34 1020.43 1020.55 1020.56 1020.67 1020.50 1020.47 1020.52 1020.46 1020.29 1020.20 1020.22 1020.01 1019.89 1019.68 1019.60 1019.42 1019.29 1019.16
1012.82 1014.04 1015.53 1016.28 1016.46 1015.83 1014.92 1014.76 1014.72 1014.98 1015.24 1015.81 1016.54 1017.68 1018.56 1018.78 1019.05 1019.43 1019.66 1019.82 1020.07 1020.28 1020.25 1020.24 1020.26 1020.37 1020.47 1020.58 1020.60 1020.64 1020.75 1020.88 1020.90 1020.88 1020.80 1020.77 1020.74 1020.73 1020.65 1020.48 1020.48 1020.45 1020.42 1020.29 1020.16 1019.78 1019.59 1019.44 1019.27
1013.43 1015.02 1016.13 1016.62 1016.22 1015.08 1014.43 1014.35 1014.32 1014.78 1015.45 1016.33 1016.92 1018.27 1018.81 1019.16 1019.16 1019.60 1019.94 1019.88 1020.14 1020.48 1020.47 1020.39 1020.39 1020.40 1020.53 1020.71 1020.89 1020.91 1020.96 1021.00 1021.01 1021.09 1021.08 1020.98 1020.93 1020.93 1020.98 1020.66 1020.64 1020.55 1020.47 1020.39 1020.33 1020.07 1019.80 1019.62 1019.42
1014.40 1015.45 1016.58 1016.78 1015.82 1014.47 1014.00 1013.89 1014.28 1014.99 1015.93 1016.93 1017.69 1018.30 1019.48 1019.68 1019.64 1019.96 1020.11 1020.30 1020.20 1020.46 1020.69 1020.60 1020.56 1020.59 1020.63 1020.82 1020.94 1021.09 1021.07 1021.09 1021.10 1021.06 1021.16 1021.15 1021.17 1021.20 1021.08 1020.99 1020.76 1020.55 1020.43 1020.30 1020.29 1020.02 1019.98 1019.73 1019.51
1014.45 1015.66 1016.63 1016.16 1015.21 1014.20 1014.01 1013.96 1014.48 1015.25 1015.93 1016.59 1017.03 1018.44 1019.54 1019.93 1019.88 1019.95 1020.14 1020.34 1020.58 1020.72 1021.01 1021.00 1020.93 1020.88 1020.91 1020.96 1020.97 1021.03 1021.09 1021.12 1021.15 1021.22 1021.24 1021.16 1021.22 1021.26 1021.18 1021.06 1020.84 1020.59 1020.35 1020.27 1020.24 1020.02 1019.92 1019.64 1019.54
1014.10 1015.53 1016.23 1015.68 1014.67 1013.91 1013.61 1013.59 1014.38 1015.09 1015.95 1016.47 1016.94 1018.12 1019.19 1019.28 1019.61 1020.12 1020.53 1020.89 1021.13 1021.12 1021.17 1021.23 1021.16 1021.09 1021.26 1021.22 1021.00 1021.09 1021.08 1021.04 1021.06 1021.08 1021.22 1021.11 1021.01 1020.95 1020.79 1020.83 1020.78 1020.65 1020.31 1020.21 1020.08 1019.88 1019.79 1019.58 1019.40
1013.51 1015.36 1015.36 1014.89 1014.21 1013.66 1013.73 1014.09 1014.94 1015.47 1015.91 1016.63 1016.88 1017.24 1017.58 1018.62 1019.58 1020.26 1020.79 1021.23 1021.30 1021.38 1021.34 1021.43 1021.41 1021.26 1021.18 1021.31 1021.31 1021.19 1021.18 1021.10 1021.11 1021.08 1021.10 1021.12 1021.33 1021.26 1020.94 1020.97 1020.58 1020.46 1020.31 1020.00 1019.74 1019.56 1019.47 1019.36 1019.26
1013.82 1014.99 1014.70 1013.86 1013.31 1013.31 1013.72 1013.90 1014.80 1015.75 1016.45 1017.28 1017.44 1017.87 1018.41 1019.14 1019.83 1020.54 1021.11 1021.56 1021.66 1021.83 1021.97 1021.74 1021.72 1021.46 1021.37 1021.53 1021.54 1021.24 1021.36 1021.43 1021.42 1021.18 1021.26 1021.22 1021.15 1021.02 1021.05 1020.94 1020.61 1020.48 1020.30 1020.08 1019.92 1019.57 1019.36 1019.18 1019.39
1014.04 1014.22 1014.20 1013.24 1012.85 1013.08 1013.71 1014.31 1014.94 1015.80 1017.01 1017.43 1017.80 1018.88 1019.30 1019.77 1020.34 1020.81 1021.36 1021.55 1021.53 1021.57 1021.45 1021.41 1021.54 1021.55 1021.53 1021.73 1021.76 1021.56 1021.54 1021.49 1021.36 1021.36 1021.15 1021.13 1021.20 1021.11 1021.28 1021.21 1020.94 1020.81 1020.51 1020.39 1019.93 1019.76 1019.78 1019.62 1019.41
1013.99 1013.95 1014.91 1014.03 1012.78 1013.40 1013.96 1014.64 1015.65 1016.06 1016.31 1017.22 1018.01 1018.84 1019.69 1020.36 1020.72 1020.89 1021.25 1021.49 1021.50 1021.49 1021.66 1021.60 1021.56 1021.63 1021.72 1021.86 1021.95 1021.85 1021.71 1021.40 1021.39 1021.20 1021.12 1021.19 1021.37 1021.35 1021.32 1021.28 1021.09 1020.97 1020.62 1020.43 1020.10 1019.97 1019.78 1019.56 1019.37
1014.24 1014.57 1014.62 1014.31 1013.42 1013.83 1014.45 1015.39 1016.06 1016.94 1017.04 1017.65 1018.49 1019.20 1020.06 1020.63 1020.94 1021.16 1021.18 1021.40 1021.60 1021.78 1021.76 1021.82 1021.75 1021.83 1021.86 1021.86 1021.84 1021.64 1021.48 1021.30 1021.32 1021.16 1021.12 1021.08 1021.29 1021.21 1021.21 1021.18 1021.00 1020.90 1020.73 1020.58 1020.20 1019.99 1019.84 1019.68 1019.46
1013.95 1014.82 1014.84 1013.64 1014.08 1014.36 1014.72 1015.81 1016.13 1017.93 1017.52 1018.07 1018.77 1019.56 1020.16 1020.68 1020.94 1021.14 1021.42 1021.47 1021.63 1021.64 1021.72 1021.78 1021.87 1021.77 1021.58 1021.62 1021.66 1021.67 1021.37 1021.22 1021.05 1021.02 1020.88 1020.95 1020.84 1020.85 1020.96 1020.98 1020.87 1020.64 1020.47 1020.43 1020.24 1020.10 1019.92 1019.85 1019.65
1014.05 1014.39 1013.86 1013.18 1013.37 1013.96 1014.67 1016.13 1016.76 1017.28 1017.89 1018.54 1019.19 1019.79 1020.24 1020.61 1020.91 1021.12 1021.38 1021.55 1021.54 1021.47 1021.59 1021.56 1021.53 1021.73 1021.52 1021.49 1021.48 1021.51 1021.42 1021.00 1020.89 1020.80 1020.54 1020.81 1020.65 1020.67 1020.62 1020.66 1020.67 1020.51 1020.30 1020.18 1019.94 1019.78 1019.68 1020.03 1019.48
1014.34 1014.77 1014.60 1012.84 1013.26 1014.24 1014.84 1016.28 1017.44 1017.75 1018.32 1019.06 1019.57 1020.17 1020.50 1020.76 1020.84 1020.98 1020.99 1021.03 1021.26 1021.43 1021.42 1021.36 1021.23 1021.41 1021.51 1021.28 1021.23 1021.09 1021.04 1021.00 1020.66 1020.51 1020.42 1020.40 1020.25 1020.09 1020.35 1020.55 1020.62 1020.34 1020.26 1020.15 1020.04 1019.83 1019.82 1019.68 1019.58
1014.63 1014.90 1014.65 1013.46 1012.88 1013.82 1014.92 1016.46 1017.35 1018.19 1018.72 1019.09 1019.27 1019.63 1019.92 1020.37 1020.60 1020.52 1020.66 1020.84 1021.03 1021.25 1021.35 1021.31 1021.19 1021.39 1021.50 1021.24 1021.17 1020.90 1020.33 1020.38 1020.32 1020.16 1020.31 1019.97 1019.63 1019.94 1020.29 1020.28 1020.23 1020.12 1020.19 1020.16 1020.19 1019.91 1020.01 1019.78 1019.48
1014.02 1014.41 1013.76 1013.30 1012.25 1012.98 1014.75 1016.06 1017.33 1018.40 1019.31 1018.90 1019.21 1019.69 1019.88 1019.55 1019.39 1019.65 1020.10 1020.38 1020.72 1021.01 1021.16 1021.18 1021.23 1021.58 1021.38 1021.37 1020.85 1020.64 1020.18 1020.35 1020.44 1019.87 1019.90 1019.72 1019.73 1019.61 1019.91 1020.03 1019.86 1019.83 1019.99 1020.10 1020.11 1020.12 1019.82 1019.70 1019.40
1011.99 1012.78 1012.79 1012.25 1012.29 1013.22 1014.53 1016.24 1017.40 1017.49 1018.10 1018.75 1019.12 1019.33 1019.68 1019.41 1018.55 1019.25 1019.76 1020.11 1020.29 1020.60 1020.86 1020.97 1021.09 1021.07 1021.24 1021.41 1021.06 1020.76 1020.44 1020.34 1020.20 1019.71 1019.61 1019.51 1019.37 1019.25 1019.49 1019.61 1019.68 1019.63 1019.73 1019.65 1019.72 1019.79 1019.72 1019.62 1019.29
1011.14 1011.89 1012.17 1011.88 1011.54 1013.81 1015.04 1016.58 1017.77 1017.79 1017.75 1018.06 1018.61 1018.88 1019.04 1018.98 1018.77 1018.98 1019.39 1019.77 1019.89 1020.04 1020.25 1020.76 1020.76 1020.70 1020.79 1021.02 1020.65 1020.33 1020.24 1020.15 1019.82 1019.70 1019.48 1019.36 1019.16 1018.92 1019.07 1019.35 1019.36 1019.17 1019.50 1019.65 1019.53 1019.43 1019.52 1019.54 1019.40
1010.66 1011.30 1011.29 1011.58 1012.24 1013.75 1015.47 1017.26 1017.88 1017.91 1017.79 1017.63 1017.45 1017.50 1018.21 1018.32 1018.32 1018.55 1019.18 1019.39 1019.37 1019.86 1020.17 1020.39 1020.25 1020.12 1020.31 1020.41 1020.46 1020.25 1020.07 1020.03 1019.86 1019.66 1019.45 1019.09 1018.95 1018.84 1018.83 1019.00 1018.98 1018.99 1019.16 1019.28 1019.25 1019.22 1019.27 1019.34 1019.23
1009.26 1009.74 1010.14 1010.77 1011.87 1013.57 1014.50 1017.04 1018.17 1018.15 1017.91 1017.52 1016.55 1016.67 1017.36 1017.87 1017.97 1018.33 1018.78 1019.01 1019.17 1019.52 1019.72 1019.87 1019.74 1019.90 1019.93 1020.17 1020.28 1020.30 1020.18 1020.16 1019.81 1019.71 1019.45 1018.83 1018.48 1018.42 1018.40 1018.64 1018.72 1018.73 1018.84 1018.99 1018.88 1018.82 1018.82 1018.95 1019.22
1008.67 1009.31 1009.73 1010.42 1011.64 1013.19 1015.03 1016.80 1017.68 1018.08 1018.06 1017.29 1016.64 1016.85 1017.46 1017.83 1017.89 1018.36 1018.54 1019.05 1019.12 1019.28 1019.38 1019.62 1019.83 1020.10 1020.10 1020.22 1020.27 1020.29 1020.14 1020.07 1019.74 1019.51 1019.36 1018.85 1018.40 1018.40 1018.33 1018.23 1018.40 1018.49 1018.47 1018.60 1018.67 1018.53 1018.51 1018.58 1018.57
1008.06 1009.33 1009.90 1011.01 1012.48 1014.48 1015.25 1016.48 1017.70 1017.80 1017.17 1017.13 1016.95 1016.98 1017.34 1017.71 1017.94 1018.28 1018.57 1018.84 1019.09 1019.32 1019.49 1019.83 1020.01 1020.02 1019.99 1020.04 1019.94 1020.07 1020.06 1019.82 1019.67 1019.26 1019.03 1018.53 1018.26 1018.16 1017.92 1017.80 1017.87 1017.88 1017.86 1018.01 1018.02 1018.11 1017.98 1017.87 1018.13
1008.30 1010.39 1011.59 1012.76 1014.19 1015.22 1015.68 1016.74 1016.97 1017.01 1016.81 1016.91 1017.05 1017.34 1017.67 1017.81 1018.10 1018.50 1018.65 1018.82 1019.10 1019.35 1019.59 1019.78 1019.91 1019.95 1019.75 1019.71 1019.63 1019.64 1019.61 1019.40 1019.17 1018.65 1018.36 1018.03 1017.61 1017.89 1017.48 1017.52 1017.44 1017.58 1017.28 1017.36 1017.32 1017.65 1017.55 1017.46 1017.77
1008.76 1010.48 1012.17 1013.62 1015.21 1015.60 1016.18 1017.13 1017.14 1016.85 1016.80 1016.75 1016.93 1017.51 1017.62 1017.89 1018.05 1018.29 1018.54 1018.99 1019.41 1019.39 1019.43 1019.61 1019.94 1019.91 1019.48 1019.47 1019.49 1019.42 1019.10 1018.95 1018.59 1018.25 1017.95 1017.62 1017.53 1017.43 1017.11 1017.09 1016.97 1016.94 1016.93 1016.83 1016.74 1017.07 1017.10 1017.08 1017.21
1008.85 1010.11 1011.12 1012.97 1014.56 1016.02 1017.02 1017.59 1017.35 1017.16 1016.96 1016.96 1017.23 1017.66 1017.66 1017.92 1018.31 1018.55 1018.57 1018.78 1019.18 1019.21 1019.58 1019.61 1019.62 1019.58 1019.35 1019.23 1019.15 1019.11 1018.95 1018.75 1018.40 1017.77 1017.54 1017.49 1017.10 1016.98 1016.79 1016.66 1016.70 1016.50 1016.43 1016.25 1016.47 1016.65 1016.73 1016.76 1016.61
1008.53 1009.60 1011.36 1013.32 1015.12 1016.37 1017.25 1017.57 1017.24 1017.20 1016.91 1017.40 1017.71 1017.83 1017.94 1018.03 1018.30 1018.59 1018.68 1018.98 1019.08 1019.09 1019.14 1019.22 1019.18 1019.12 1018.97 1018.79 1018.81 1018.76 1018.62 1018.39 1018.02 1017.71 1017.10 1016.83 1016.54 1016.38 1016.33 1016.37 1016.26 1016.11 1016.16 1016.09 1016.18 1016.27 1016.29 1016.29 1016.11
1009.03 1010.09 1011.75 1013.42 1015.01 1016.23 1017.19 1017.35 1016.26 1016.44 1016.69 1017.25 1017.44 1017.65 1017.80 1017.92 1018.23 1018.61 1018.63 1018.62 1018.54 1018.60 1018.81 1018.97 1019.08 1019.13 1019.05 1018.73 1018.59 1018.50 1018.20 1017.82 1017.60 1017.34 1016.97 1016.56 1016.04 1015.73 1015.69 1015.80 1015.71 1015.71 1015.76 1015.73 1015.85 1015.84 1015.81 1015.79 1015.63
1009.33 1010.39 1011.71 1013.81 1014.98 1015.90 1016.59 1016.94 1016.41 1016.58 1016.89 1017.10 1017.23 1017.19 1017.22 1017.47 1017.87 1018.18 1018.20 1018.40 1018.50 1018.93 1019.05 1018.94 1018.94 1018.93 1018.83 1018.66 1018.48 1018.31 1018.01 1017.80 1017.39 1017.01 1016.45 1015.95 1015.46 1015.15 1015.07 1015.22 1015.34 1015.34 1015.38 1015.37 1015.35 1015.33 1015.34 1015.42 1015.20
Wind_Speed
7 4 2 6 7 5 2 5 3 8 4 5 11 10 11 8 3 3 3 8 9 5 3 6 11 10 12 11 11 12 11 11 11 10 10 10 9 9 9 9 9 8 8 7 7 6 6 6 6
4 3 5 3 6 3 1 6 7 8 13 15 13 10 10 5 4 10 6 6 6 5 4 4 10 11 11 10 11 12 11 11 11 10 9 10 10 10 10 9 9 8 7 7 7 7 8 7 6
5 3 5 5 4 4 4 8 12 17 17 6 7 8 4 3 7 5 8 9 7 6 5 6 10 10 10 10 10 11 10 10 9 9 8 9 9 9 9 10 10 10 10 9 7 8 9 8 9
3 5 4 5 5 3 3 5 15 10 8 10 12 9 4 4 6 7 11 11 8 5 5 9 10 9 9 9 9 9 8 7 6 7 7 7 7 8 8 8 9 9 9 9 8 9 9 10 10
4 4 5 4 2 4 3 9 5 7 6 6 3 5 3 3 11 14 12 11 10 6 5 6 10 9 8 7 6 6 6 5 5 4 3 3 4 5 5 6 6 6 8 8 8 8 9 9 10
5 3 5 3 4 3 3 9 8 7 11 12 10 7 2 6 13 11 10 8 9 9 6 5 9 8 8 7 5 5 5 4 3 1 2 3 4 4 3 3 3 6 9 10 11 11 11 11 11
6 4 2 2 6 3 8 8 8 10 9 5 13 5 5 9 10 12 10 8 6 5 5 2 2 5 7 6 6 6 7 6 4 3 1 4 6 5 5 6 6 7 8 8 9 11 12 12 14
6 4 1 2 5 5 2 6 12 9 6 10 14 8 8 13 14 10 7 6 5 5 5 5 4 3 3 3 6 6 7 7 5 3 1 7 8 6 8 8 10 10 9 8 11 12 10 10 11
2 4 3 5 6 6 5 5 5 6 8 4 1 6 9 15 10 10 10 5 4 6 5 3 2 5 5 4 4 6 7 6 5 1 3 4 3 4 5 6 6 12 11 12 12 14 12 10 11
4 1 5 5 4 7 8 7 9 5 5 5 9 12 9 14 12 12 9 6 3 4 4 6 5 6 6 1 4 4 4 1 2 3 3 3 4 5 6 8 10 8 10 11 9 11 13 8 3
2 5 4 11 5 10 8 9 4 12 4 5 18 10 9 14 10 9 6 7 7 5 4 5 6 5 6 4 3 2 1 2 3 2 2 2 3 3 3 3 3 4 8 3 5 5 4 5 4
2 6 4 12 9 9 5 5 6 3 6 13 12 12 7 10 7 8 8 6 5 7 5 5 5 5 5 3 3 1 1 2 2 3 4 2 2 2 2 2 4 4 3 3 3 3 5 6 7
6 4 3 6 6 9 14 9 9 11 14 12 14 11 9 7 6 5 6 4 5 6 5 4 4 4 2 2 3 3 2 2 2 3 3 3 3 1 1 3 3 4 2 3 4 4 5 5 6
6 5 9 3 5 9 15 9 6 4 12 12 15 12 9 9 8 5 4 4 3 2 5 2 2 4 4 2 3 3 4 3 2 4 5 5 4 3 1 2 3 3 2 4 3 3 4 3 4
6 5 3 1 4 5 12 1 5 16 13 12 9 7 8 9 7 8 6 7 6 5 4 5 4 5 5 5 4 3 4 4 4 4 6 5 3 3 3 3 2 4 3 5 4 3 3 4 3
4 6 3 8 6 3 6 4 12 13 14 10 9 6 6 5 6 7 8 8 7 6 7 5 5 6 8 6 5 4 4 5 5 4 3 7 7 6 4 3 4 4 4 3 3 3 3 3 4
6 4 5 9 5 6 3 5 13 10 10 12 11 11 9 7 8 10 9 9 8 7 7 7 7 6 7 6 5 4 6 5 5 3 4 7 8 5 3 3 5 3 3 4 2 2 1 3 4
6 4 3 7 5 10 6 3 15 11 8 12 10 10 10 10 15 13 10 8 7 7 7 7 5 3 5 5 4 4 4 3 3 4 4 4 3 5 4 4 5 2 2 2 2 2 2 3 3
7 5 7 7 8 3 8 9 14 17 14 10 9 11 10 11 14 8 8 8 7 8 8 7 6 5 5 3 3 4 3 3 3 1 5 6 6 6 5 4 4 4 4 4 3 2 2 3 1
9 3 6 10 3 5 8 9 3 8 4 3 7 11 12 12 9 8 9 7 9 11 8 6 7 8 6 3 4 4 2 3 4 4 5 6 6 6 4 4 4 3 3 4 2 2 1 2 1
3 7 4 8 10 10 14 6 1 2 6 6 7 12 8 14 9 7 8 10 9 7 5 8 11 10 7 8 3 3 1 3 3 3 3 5 6 6 5 6 5 4 3 3 3 3 3 2 2
3 3 2 6 4 4 9 4 2 3 5 6 8 9 7 6 5 4 7 8 6 5 7 8 8 7 5 6 5 5 3 4 2 2 4 4 4 5 6 6 5 5 3 4 4 4 3 3 4
7 6 2 4 3 4 3 6 3 3 6 8 3 4 6 6 8 7 7 3 5 3 2 3 3 5 6 5 5 3 4 3 3 3 5 4 5 5 6 5 6 6 4 4 5 5 5 3 3
5 1 7 6 4 4 4 6 5 6 7 4 3 8 8 5 6 4 3 3 2 2 3 2 3 6 6 6 7 6 6 8 5 5 5 4 3 5 6 6 6 6 5 5 5 6 5 4 4
8 7 5 6 6 5 3 3 5 6 8 6 8 6 6 7 8 6 7 6 6 5 4 3 6 7 7 7 5 6 8 8 9 10 8 5 3 4 6 4 5 4 5 6 5 5 5 4 4
1 7 6 4 3 4 4 2 5 5 7 4 4 8 8 8 8 7 7 6 5 7 8 7 6 6 7 6 7 7 8 5 5 6 5 5 5 6 7 6 5 6 6 6 5 4 4 3 4
4 2 6 5 0 3 3 1 3 4 7 3 9 6 7 7 5 5 7 7 6 5 4 8 7 3 3 6 6 6 6 7 7 8 5 7 5 5 7 6 6 6 7 5 4 4 5 4 5
4 2 2 4 2 4 2 2 4 7 9 10 8 6 4 4 7 5 4 5 3 6 7 6 5 6 6 6 4 5 5 6 7 6 7 7 8 7 7 6 6 6 6 5 5 4 5 4 5
5 3 5 4 4 4 1 5 6 9 7 11 8 7 6 8 7 7 6 7 8 7 6 5 6 6 4 3 3 5 6 6 6 6 6 7 9 9 6 7 6 6 5 6 6 5 6 5 6
2 3 5 6 5 1 4 6 5 8 8 8 7 6 3 7 8 6 6 7 6 4 5 6 5 4 1 2 3 5 6 7 7 6 7 9 10 6 8 6 6 5 5 6 6 5 4 5 5
Wind_Direction
164 181 90 49 59 57 143 282 311 135 69 49 66 94 92 35 25 178 145 136 136 141 127 116 117 106 98 94 87 87 84 76 72 66 71 72 72 70 64 59 54 57 50 43 29 33 45 42 38
158 127 51 75 83 77 267 254 136 115 120 108 85 71 52 61 49 128 120 144 136 133 138 143 120 108 97 93 89 84 80 77 73 67 62 64 60 57 55 48 50 50 40 30 28 15 6 7 17
133 59 77 83 116 174 191 189 124 129 152 111 110 52 60 93 117 139 121 141 135 140 158 137 118 104 98 94 91 83 79 75 74 68 59 57 56 51 47 43 36 30 29 20 11 359 356 351 348
108 28 36 93 181 234 189 104 123 124 88 57 107 81 75 350 136 150 144 145 139 144 138 132 122 116 109 100 94 88 81 79 73 63 56 46 43 35 32 34 29 23 13 6 358 355 350 347 340
42 65 56 60 292 259 247 119 130 99 105 105 105 101 63 30 120 138 153 154 138 141 152 137 143 136 124 115 113 110 104 89 78 63 42 41 29 20 20 25 21 2 342 330 324 327 328 328 327
51 93 43 2 268 195 70 135 99 86 103 111 101 98 72 126 138 159 162 150 152 155 166 176 154 146 139 135 130 129 118 108 92 64 349 341 342 343 4 337 300 331 327 323 314 312 307 307 308
103 82 199 265 254 105 121 137 124 141 154 121 140 97 140 170 172 169 166 158 152 144 140 137 136 177 163 160 164 161 152 152 174 205 313 312 293 283 273 262 273 301 320 323 309 305 305 307 307
115 65 326 262 224 176 198 106 112 113 63 116 139 163 176 191 178 178 127 113 134 135 154 160 197 214 191 228 192 187 173 166 187 201 34 334 328 288 273 249 263 281 305 316 307 302 305 308 307
102 114 273 229 193 157 179 103 44 53 101 65 10 136 150 170 133 116 116 110 125 164 169 170 195 249 205 224 259 217 204 194 199 253 25 46 20 339 340 321 305 250 308 314 299 303 302 291 296
87 136 233 203 211 154 161 134 139 108 92 54 87 80 93 145 128 130 138 148 141 128 165 158 123 60 74 336 330 227 239 4 298 217 111 83 46 23 25 358 359 353 334 7 20 24 12 356 325
251 203 76 302 165 146 159 121 85 120 69 170 143 113 106 124 127 127 137 142 143 155 98 79 80 65 60 54 27 31 199 216 243 240 98 63 53 43 16 350 346 337 350 333 359 6 357 328 303
112 283 275 304 120 130 91 94 71 356 148 149 116 124 115 121 136 146 146 136 123 106 108 98 85 69 41 26 28 75 193 178 200 215 167 137 91 47 353 345 343 347 326 310 340 344 319 328 331
164 326 21 275 26 89 92 76 105 102 122 120 115 113 122 122 120 112 133 132 122 127 126 116 112 110 86 8 329 343 285 289 144 182 200 143 154 134 330 315 343 318 333 301 327 340 337 328 316
143 151 253 68 61 153 120 143 97 168 138 125 130 147 142 148 162 150 165 168 217 190 155 132 192 193 167 214 275 285 283 271 304 208 209 207 164 166 243 302 333 322 323 308 321 318 322 329 323
101 172 251 107 150 128 119 77 138 153 147 137 141 150 156 176 174 193 192 197 205 225 196 204 215 238 209 218 247 276 278 279 278 259 204 207 173 205 240 272 299 291 293 313 347 344 17 321 311
99 62 351 263 138 140 154 206 160 159 146 155 160 164 184 192 208 213 210 206 205 224 223 233 239 214 231 225 237 242 279 276 267 249 225 198 201 202 215 242 273 274 304 302 325 315 315 317 341
4 182 223 308 138 134 149 109 181 165 162 174 176 192 188 197 230 229 218 211 203 216 233 249 257 259 225 241 250 248 248 241 260 243 237 208 196 202 204 210 251 280 295 318 318 312 262 295 313
179 239 238 218 240 161 123 179 159 165 197 189 190 200 209 194 225 223 216 209 201 214 230 237 262 37 292 278 274 292 283 326 291 233 220 203 212 197 213 246 242 243 268 293 310 271 285 243 277
170 200 199 249 232 83 179 134 174 186 189 200 200 206 217 216 229 204 219 214 207 221 233 224 219 200 224 250 263 273 256 269 269 266 210 195 207 219 212 256 271 235 224 229 255 262 261 309 323
180 172 252 311 219 85 127 137 125 196 214 167 197 212 218 233 228 200 205 201 220 226 223 201 205 213 222 206 225 228 166 261 244 236 231 228 222 222 218 232 245 233 240 266 266 203 268 254 299
66 194 240 240 93 95 125 160 195 238 266 279 267 220 213 222 224 224 190 209 224 230 204 211 215 221 215 230 247 279 8 297 310 265 252 241 241 242 231 240 230 234 202 233 262 230 207 229 298
145 235 68 355 47 227 193 198 217 275 300 270 228 201 211 212 163 168 188 216 213 226 217 230 221 229 226 225 229 218 219 251 250 285 279 270 264 245 240 249 238 225 221 232 236 222 224 166 238
206 211 137 238 336 90 68 88 250 158 245 251 137 103 130 148 148 160 192 144 187 165 218 254 261 265 266 252 257 248 259 253 255 273 294 281 266 256 268 240 234 225 220 242 248 250 227 202 196
148 10 27 17 70 22 240 128 235 192 197 158 105 112 137 131 135 70 78 133 160 219 209 136 193 247 259 249 244 244 274 275 268 254 253 270 272 283 269 249 227 233 227 234 241 243 237 223 231
68 46 345 355 4 241 136 39 245 196 165 168 153 158 116 115 117 132 151 163 178 198 200 198 216 250 250 240 256 250 257 268 261 265 263 256 266 262 267 260 238 241 239 253 246 241 234 233 226
281 139 156 226 233 278 18 197 274 181 188 160 140 162 151 152 171 174 159 151 165 171 183 193 199 250 242 247 265 268 256 253 258 258 260 254 254 249 253 243 241 249 255 253 227 222 239 244 255
296 282 184 143 328 91 176 10 356 232 241 142 147 170 160 178 157 151 134 143 161 150 137 166 184 190 167 189 208 240 262 271 272 270 252 260 256 257 252 232 239 235 241 247 244 228 244 238 256
177 189 6 12 270 270 207 212 231 194 221 158 158 155 150 134 123 136 141 168 178 173 182 182 165 160 175 192 197 227 245 268 275 281 273 265 263 239 241 244 243 251 260 255 222 234 243 253 268
348 23 58 114 128 159 225 254 230 185 167 154 154 174 162 154 167 179 175 173 164 167 166 152 143 153 181 201 212 252 255 265 278 281 285 270 267 254 227 231 254 246 251 254 245 230 250 252 269
215 153 115 118 285 208 154 260 347 132 145 155 171 174 171 157 183 198 178 194 201 159 166 165 175 182 143 191 238 274 265 299 281 284 279 282 283 248 225 220 238 241 246 256 247 238 231 236 272